Lid_Strength_Index
15 14 14 14 14 14 15 14 17 15 15 12 10 11 10 8 9 9 9 9 9 9 9 9 6 5 4 5 5 5 6 6 6 7 7 9 9 11 11 11 10 10 11 11
16 14 14 15 14 13 14 13 13 13 14 10 10 12 11 10 10 10 10 10 9 9 9 9 7 7 7 6 6 6 6 6 7 8 8 9 10 11 11 11 10 10 11 11
17 15 16 18 15 13 13 13 14 16 14 12 12 12 12 11 11 11 11 11 10 9 9 9 8 6 7 8 9 7 8 8 9 9 9 10 10 10 11 11 11 11 11 11
17 17 20 16 13 11 12 12 12 13 12 11 12 12 13 14 13 13 12 12 11 10 9 9 8 7 7 8 9 10 10 9 8 9 9 10 10 11 11 12 11 12 11 11
16 18 15 14 13 13 13 14 12 13 12 12 13 14 14 13 14 12 12 11 10 10 9 9 8 8 8 9 9 9 9 9 8 7 8 9 10 10 11 10 12 11 11 12
16 18 19 16 13 11 12 16 13 13 13 14 14 15 15 13 13 13 11 10 10 10 10 9 9 8 8 9 9 9 9 9 9 8 9 9 9 10 10 10 11 11 13 12
15 16 15 12 12 12 17 15 12 12 13 13 14 14 12 11 12 12 12 11 11 10 10 10 9 9 9 10 9 9 9 9 10 9 9 8 10 10 11 11 13 13 14 13
15 17 18 11 12 14 12 12 11 11 12 12 12 12 11 11 11 11 12 11 11 11 11 10 9 9 9 10 9 9 10 10 10 10 10 11 12 13 13 13 13 13 13 13
13 14 11 11 11 10 10 11 11 11 11 11 11 11 11 11 11 11 11 11 11 11 11 11 11 10 10 10 10 10 10 11 11 11 11 10 11 12 12 12 12 13 13 13
11 11 11 11 10 10 9 10 10 10 10 10 11 11 11 11 11 11 11 11 11 11 11 12 11 11 11 11 10 11 11 11 11 11 12 12 11 11 12 12 13 13 13 14
11 10 9 9 9 9 9 8 9 9 9 10 10 10 10 11 11 10 10 10 11 11 11 11 11 11 11 11 11 11 11 12 12 12 12 13 12 12 12 12 11 13 13 13
13 9 8 9 8 8 8 8 8 9 9 9 9 10 10 10 10 11 12 11 11 11 11 11 10 11 11 11 11 11 11 12 12 12 12 13 13 13 10 11 10 10 10 11
9 8 8 9 9 8 9 9 8 8 8 9 9 9 10 10 10 10 11 11 11 11 11 10 11 11 11 11 11 11 12 12 12 13 14 14 14 14 14 12 9 9 9 9
9 9 11 10 10 9 8 9 8 8 9 9 9 9 9 10 10 10 11 11 11 12 12 12 12 13 12 11 11 11 12 10 12 13 13 13 14 14 14 13 13 13 9 10
11 11 11 11 11 11 10 9 10 10 9 9 9 9 10 11 11 11 11 11 11 12 12 12 12 12 11 12 12 12 12 12 12 13 13 13 13 14 13 13 13 13 12 11
11 10 10 11 11 11 11 10 11 11 11 11 11 11 11 10 11 11 11 10 12 13 12 12 12 11 11 11 12 12 11 10 11 12 12 13 13 13 13 13 13 13 13 12
14 14 13 13 13 13 12 12 11 11 11 11 11 11 11 11 11 12 12 11 11 11 11 11 12 11 11 11 12 12 12 12 10 12 12 13 13 13 13 13 13 13 13 13
12 13 13 13 14 14 14 13 14 14 14 12 12 12 12 13 13 13 13 13 13 12 12 11 11 10 10 10 10 11 11 11 12 12 12 11 12 11 12 13 13 13 12 11
12 13 13 13 13 14 14 14 14 14 14 14 14 15 14 14 14 14 14 14 14 14 13 12 10 11 11 10 10 11 11 11 11 11 11 10 10 11 13 13 12 12 11 11
12 12 12 12 12 13 14 14 14 14 14 14 14 14 15 14 14 14 14 14 14 13 12 11 12 12 12 12 10 10 10 11 12 12 12 12 12 12 12 10 11 11 11 10
12 12 12 13 13 12 12 12 13 13 13 13 13 14 14 13 13 13 14 14 12 10 9 9 11 11 11 9 9 11 11 11 11 12 11 11 11 11 11 10 10 9 9 9
12 12 12 12 13 13 13 13 13 13 13 12 12 13 13 13 13 13 12 13 11 9 10 11 11 9 9 7 10 11 11 11 11 11 12 11 11 11 12 11 11 10 10 10
12 12 12 12 13 13 13 13 13 13 13 13 13 13 13 13 12 13 13 12 11 10 10 11 9 8 7 10 11 11 11 11 11 11 11 11 11 11 11 11 11 10 11 10
12 12 12 12 13 13 14 13 13 12 12 12 12 12 13 13 12 12 12 10 9 9 9 9 8 7 7 10 11 11 11 11 11 11 11 8 11 11 10 8 9 10 10 9
13 13 13 14 13 13 13 12 13 13 13 13 12 12 12 11 12 11 11 11 9 10 11 9 8 9 11 11 11 12 12 11 12 12 11 12 11 12 11 11 11 11 11 11
12 12 12 11 12 12 12 12 12 11 11 11 11 11 11 11 11 11 12 11 11 11 12 12 12 11 12 12 12 12 12 12 11 12 11 12 12 11 12 12 12 12 11 10
11 9 12 11 11 11 12 11 11 12 11 11 11 10 11 11 11 11 11 12 12 12 12 12 12 12 12 12 12 12 12 12 11 11 12 13 13 14 13 12 12 12 11 11